Flag for Austria Weather past 2 weeks in Steyr, Upper Austria, Austria

Now
49 °F

Low clouds.


Feels Like: 48 °F
Forecast: 50 / 58 °F
Wind: 3 mph from Southwest

Location: Kremsmuenster

Current Time: May 23, 2015 at 8:28:48 AM

Latest Report: May 23, 2015 at 7:00 AM


Visibility: 2 mi

Pressure: 30.08 "Hg

Humidity: 95%

Dew point: 48 °F

Location of SteyrLocation

Historic Weather in Steyr — Graph

°F

Steyr temperature yesterday

Maximum temperature yesterday: 55 °F (at 12:00 PM)
Minimum temperature yesterday: 48 °F (at 1:00 AM)
Average temperature yesterday: 51 °F

Past Weeks' High & Low Weather Summary

 TemperatureHumidityPressure
High77 °F (May 12, 5:00 PM)95% (May 14, 1:00 AM)30.40 "Hg (May 14, 1:00 AM)
Low45 °F (May 21, 6:00 AM)28% (May 11, 5:00 PM)29.70 "Hg (May 18, 8:00 PM)
Average58 °F75%30.07 "Hg
* Reported May 8 7:00 AM — May 23 7:00 AM, Steyr, Weather by CustomWeather, © 2015

Note: Actual official high and low records may vary slightly from our data, if they occured in-between our weather recording intervals... More about our weather records

Advertising

Steyr weather history for previous 24 hours

 ConditionsComfort  
Time TempWeatherWind HumidityBarometerVisibility
7:00 AM
Sat, May 23
49 °FLow clouds.3 mph95%30.08 "Hg2 mi
6:00 AM49 °FFog.3 mph95%30.09 "HgN/A
5:00 AM49 °FCool.3 mph95%30.10 "HgN/A
4:00 AM49 °FCool.6 mph94%30.11 "HgN/A
3:00 AMN/APassing clouds.16 mphN/AN/A2 mi
2:00 AM49 °FCool.5 mph95%30.14 "HgN/A
1:00 AM49 °FFog.5 mph94%30.16 "HgN/A
12:00 AM50 °FFog.6 mph94%30.17 "HgN/A
10:00 PM
Fri, May 22
50 °FFog.5 mph94%30.19 "HgN/A
9:00 PM52 °FFog.3 mph88%30.18 "HgN/A
8:00 PM52 °FLight rain. Overcast.5 mph88%30.17 "Hg7 mi
7:00 PM53 °FCool.3 mph90%30.17 "HgN/A
6:00 PM54 °FCool.2 mph86%30.17 "HgN/A
5:00 PM54 °FLight rain. Overcast.1 mph84%30.19 "Hg2 mi
4:00 PM54 °FCool.1 mph85%30.20 "HgN/A
3:00 PM53 °FFog.3 mph87%30.22 "HgN/A
2:00 PM54 °FFog.3 mph82%30.22 "HgN/A
1:00 PM55 °FCool.3 mph75%30.22 "HgN/A
12:00 PM55 °FCool.No wind74%30.24 "HgN/A
11:00 AM55 °FFog.1 mph76%30.25 "Hg3 mi
10:00 AM52 °FCool.1 mph81%30.27 "HgN/A
9:00 AM50 °FCool.2 mph90%30.28 "HgN/A
8:00 AM49 °FFog.2 mph93%30.28 "Hg2 mi
Weather by CustomWeather, © 2015

See weather overviewHow to use our weather pages